EHI
1 2 3 2 1 1 0 0 0 0 0 0 0 0 0 0 0 0 0 0 0 0 0 0 0 0 0 0 0 0 0 0 0 0 0 0 0 0 0 0 0 0 0
2 2 3 3 2 1 0 0 0 0 0 0 0 0 0 0 0 0 0 0 0 0 0 0 0 0 0 0 0 0 0 0 0 0 0 0 0 0 0 0 0 0 0
2 3 3 3 2 1 0 0 0 0 0 0 0 0 0 0 0 0 0 0 0 0 0 0 0 0 0 0 0 0 0 0 0 0 0 0 0 0 0 0 0 0 0
1 2 2 2 2 1 0 0 1 0 0 0 0 0 0 0 0 0 0 0 0 0 0 0 0 0 0 0 0 0 0 0 0 0 0 0 0 0 0 0 0 0 0
0 1 1 1 1 1 1 0 0 0 0 0 0 0 0 0 0 0 0 0 0 0 0 0 0 0 0 0 0 0 0 0 0 0 0 0 0 0 0 0 0 0 0
0 0 1 1 1 2 1 0 0 0 0 0 0 0 0 0 0 0 0 0 0 0 0 0 0 0 0 0 0 0 0 0 0 0 0 0 0 0 0 0 0 0 0
0 1 2 2 2 2 1 0 0 0 0 0 0 0 0 0 0 0 0 0 0 0 0 0 0 0 0 0 0 0 0 0 0 0 0 0 0 0 0 0 0 0 0
1 2 3 3 1 1 0 0 0 0 0 0 0 0 0 0 0 0 0 0 0 0 0 0 0 0 0 0 0 0 0 0 0 0 0 0 0 0 0 0 0 0 0
3 3 3 2 1 0 0 0 0 0 0 0 0 0 0 0 0 0 0 0 0 0 0 0 0 0 0 0 0 0 0 0 0 0 0 0 0 0 0 0 0 0 0
2 2 1 1 0 0 0 0 0 0 0 0 0 0 0 0 0 0 0 0 0 0 0 0 0 0 0 0 0 0 0 0 0 0 0 0 0 0 0 0 0 0 0
1 1 0 0 0 0 0 0 0 0 0 0 0 0 0 0 0 0 0 0 0 0 0 0 0 0 0 0 0 0 0 0 0 0 0 0 0 0 0 0 0 0 0
0 0 0 0 0 0 0 0 0 0 0 0 0 0 0 0 0 0 0 0 0 0 0 0 0 0 0 0 0 0 0 0 0 0 0 0 0 0 0 0 0 0 0
0 0 0 0 0 0 0 0 0 0 0 0 0 0 0 0 0 0 0 0 0 0 0 0 0 0 0 0 0 0 0 0 0 0 0 0 0 0 0 0 0 0 0
0 0 0 0 0 0 0 0 0 0 0 0 0 0 0 0 0 0 0 0 0 0 0 0 0 0 0 0 0 0 0 0 0 0 0 0 0 0 0 0 0 0 0
0 0 0 0 0 0 0 0 0 0 0 0 0 0 0 0 0 0 0 0 0 0 0 0 0 0 0 0 0 0 0 0 0 0 0 0 0 0 0 0 0 0 0
0 0 0 0 0 0 0 0 0 0 0 0 0 0 0 0 0 0 0 0 0 0 0 0 0 0 0 0 0 0 0 0 0 0 0 0 0 0 0 0 0 0 0
0 0 0 0 0 0 0 0 0 0 0 0 0 0 0 0 0 0 0 0 0 0 0 0 0 0 0 0 0 0 0 0 0 0 0 0 0 0 0 0 0 0 0
0 0 0 0 0 0 0 0 0 0 0 0 0 0 0 0 0 0 0 0 0 0 0 0 0 0 0 0 0 0 0 0 0 0 0 0 0 0 0 0 0 0 0
0 0 0 0 0 0 0 0 0 0 0 0 0 0 0 0 0 0 0 0 0 0 0 0 0 0 0 0 0 0 0 0 0 0 0 0 0 0 0 0 0 0 0
0 0 0 0 0 0 0 0 0 0 0 0 0 0 0 0 0 0 0 0 0 0 0 0 0 0 0 0 0 0 0 0 0 0 0 0 0 0 0 0 0 0 0
0 0 0 0 0 0 0 0 0 0 0 0 0 0 0 0 0 0 0 0 0 0 0 0 0 0 0 0 0 0 0 0 0 0 0 0 0 0 0 0 0 0 0
0 0 0 0 0 0 0 0 0 0 0 0 0 0 0 0 0 0 0 0 0 0 0 0 0 0 0 0 0 0 0 0 0 0 0 0 0 0 0 0 0 0 0
0 0 0 0 0 0 0 0 0 0 0 0 0 0 0 0 0 0 0 0 0 0 0 0 0 0 0 0 0 0 0 0 0 0 0 0 0 0 0 0 0 0 0
0 0 0 0 0 0 0 0 0 0 0 0 0 0 0 0 0 0 0 0 0 0 0 0 0 0 0 0 0 0 0 0 0 0 0 0 0 0 0 0 0 0 0
0 0 0 0 0 0 0 0 0 0 0 0 0 0 0 0 0 0 0 0 0 0 0 0 0 0 0 0 0 0 0 0 0 0 0 0 0 0 0 0 0 0 0
0 0 0 0 0 0 0 0 0 0 0 0 0 0 0 0 0 0 0 0 0 0 0 0 0 0 0 0 0 0 0 0 0 0 0 0 0 0 0 0 0 0 0
Wind_Speed
1 1 1 1 1 1 1 1 1 1 1 1 2 2 3 2 2 1 2 4 4 5 6 6 7 7 7 7 8 8 8 9 9 9 9 9 9 9 9 9 10 10 10
1 1 0 0 1 1 1 1 1 1 1 1 2 2 2 2 2 1 2 3 5 6 7 7 7 7 7 7 7 7 8 9 10 10 10 10 10 11 11 11 11 11 11
1 1 1 1 1 1 1 1 1 0 1 1 2 2 2 2 2 2 2 2 3 5 6 7 7 7 8 8 9 8 8 9 9 10 11 11 11 12 12 12 12 12 13
1 1 1 1 1 0 0 0 0 0 1 1 1 2 2 2 3 2 1 2 2 2 4 6 8 8 9 9 10 10 9 9 9 10 11 11 12 13 13 13 13 13 13
0 1 1 1 1 0 0 0 0 0 1 1 2 2 2 2 2 2 2 1 2 2 2 5 7 8 10 10 10 11 10 10 10 10 10 11 12 13 14 15 15 15 15
0 0 1 1 1 0 0 0 1 1 1 1 2 2 2 2 2 2 2 2 2 2 2 3 3 5 9 10 11 12 12 12 11 11 11 11 12 12 13 14 16 16 16
1 1 1 1 1 1 1 1 1 1 1 0 1 2 3 3 2 2 2 2 2 3 2 3 3 3 4 9 11 11 12 12 12 12 12 12 12 13 13 13 14 15 16
2 1 2 1 1 1 1 2 1 1 1 0 0 1 2 3 2 3 2 2 3 2 3 3 3 4 3 3 6 10 11 12 13 13 13 13 13 14 14 14 15 14 16
1 1 2 2 2 2 2 2 2 2 2 1 1 1 1 2 3 2 3 3 3 3 3 3 4 4 4 3 4 7 10 12 13 14 14 14 14 15 15 15 15 16 15
2 2 2 2 2 2 2 2 2 2 2 2 2 2 2 2 2 3 2 3 3 4 4 4 4 4 4 3 5 7 9 11 13 14 14 15 15 16 17 16 16 15 15
2 2 2 2 1 1 2 2 2 2 2 2 2 2 2 2 2 3 5 3 3 3 3 4 4 4 4 4 4 6 9 10 13 14 15 16 17 17 17 16 16 16 16
1 1 1 1 1 1 2 2 2 2 2 2 2 2 2 2 2 3 5 5 4 4 4 4 4 4 4 4 6 8 9 11 13 15 15 16 17 17 17 17 16 17 17
0 1 1 1 1 1 1 1 2 2 3 3 3 3 3 3 2 3 4 5 5 5 4 4 4 4 4 3 4 9 10 12 13 14 14 15 16 17 17 17 17 18 18
1 1 1 1 1 1 1 1 1 2 2 3 3 3 3 3 3 3 3 3 6 6 5 6 3 4 3 3 6 9 7 12 14 14 14 15 15 16 17 17 18 18 19
1 0 1 1 1 1 1 1 1 2 2 2 3 3 3 3 3 3 3 3 4 7 8 6 4 3 4 4 7 6 5 10 13 14 15 15 15 16 17 17 18 19 18
0 0 1 1 1 2 2 2 2 2 2 3 3 3 4 3 3 3 4 4 4 6 8 6 5 5 5 6 9 7 7 12 13 15 16 15 15 16 17 18 19 19 18
1 1 1 1 1 2 2 2 2 3 3 3 3 4 5 4 4 4 4 4 4 4 8 8 5 5 6 6 7 6 6 7 7 13 15 16 16 16 17 17 17 18 18
0 0 0 1 2 2 2 2 3 3 4 4 4 4 5 4 5 5 4 5 5 5 7 10 7 5 7 7 7 7 7 7 6 11 14 16 16 16 16 16 16 17 17
0 1 1 1 2 2 3 3 3 4 4 4 4 5 5 5 6 5 5 6 5 6 6 8 9 6 6 5 6 7 7 6 7 9 12 14 15 16 16 16 16 15 15
0 1 1 2 2 2 3 4 4 4 5 5 5 5 6 6 7 7 6 6 6 6 6 7 8 7 6 6 5 6 7 5 6 7 10 11 13 15 15 16 15 14 14
1 1 2 2 2 3 3 4 4 5 5 5 6 6 7 9 10 9 8 6 6 6 6 7 7 7 7 5 6 5 7 7 6 6 6 6 7 7 8 11 13 13 13
1 2 2 2 3 3 6 9 8 5 5 6 7 7 7 8 10 13 14 13 11 9 8 8 8 9 9 8 6 6 7 7 8 3 5 7 5 7 6 5 10 12 12
2 2 3 3 3 4 8 10 10 7 6 6 6 6 7 7 9 7 10 13 13 16 15 11 11 11 10 9 8 8 8 8 9 6 5 9 5 7 6 6 10 11 12
2 2 3 3 4 5 9 10 11 7 5 6 6 6 7 7 7 9 8 9 9 10 11 10 10 11 10 9 9 9 9 9 8 5 5 8 6 6 6 5 9 11 11
2 3 3 3 4 6 8 10 10 5 5 6 6 6 7 8 12 14 10 9 10 9 10 13 14 14 16 16 12 7 6 7 8 6 4 5 5 5 5 4 6 9 9
3 3 4 3 4 5 8 9 10 4 5 6 6 6 9 11 14 15 9 9 10 10 8 9 10 12 11 11 14 9 7 7 7 6 3 3 4 3 4 3 3 3 4
Wind_Direction
145 144 139 159 191 192 183 190 209 229 240 248 229 226 236 245 244 193 167 191 207 233 248 256 262 264 262 258 252 248 245 244 244 244 244 242 242 242 242 242 241 240 241
144 155 166 155 218 209 194 197 205 224 230 249 262 257 251 244 239 198 174 201 217 233 247 259 267 272 271 267 261 257 254 254 251 248 246 244 244 244 245 245 245 244 244
146 153 166 199 226 221 216 208 224 249 266 268 271 277 280 276 267 234 198 194 208 231 249 263 268 272 274 272 269 264 263 263 260 257 254 249 247 247 248 247 246 247 247
153 151 165 209 240 215 149 203 174 223 275 268 275 273 271 273 269 260 231 195 185 208 239 261 270 271 273 274 275 274 268 265 264 261 259 255 252 250 249 248 248 248 248
204 159 170 202 214 197 188 229 89 221 259 270 273 266 263 264 265 267 251 229 222 209 208 244 258 268 270 272 274 277 276 271 269 266 263 261 259 256 252 249 249 250 249
227 159 188 205 188 165 211 197 211 248 246 249 287 296 278 263 264 262 262 255 238 232 226 231 237 256 264 271 274 275 275 274 272 269 269 268 266 264 261 257 252 251 250
207 187 215 211 190 196 207 223 218 207 282 324 338 316 293 265 250 262 260 261 259 245 231 237 235 237 249 258 265 271 272 275 275 272 270 271 270 269 267 265 262 257 253
209 195 181 205 213 208 217 221 203 203 244 205 184 317 309 310 288 268 258 256 259 259 254 255 248 245 243 237 254 265 271 272 274 274 274 272 271 270 268 268 267 267 263
214 189 195 195 211 210 215 217 201 206 209 234 209 176 211 260 296 274 257 253 254 258 259 258 254 253 250 245 245 254 263 269 272 275 275 276 273 272 271 270 270 268 270
202 191 196 206 215 207 208 219 212 207 195 218 243 233 222 226 264 295 282 265 265 261 257 268 264 258 253 247 251 260 263 267 271 274 276 277 277 275 272 271 269 271 271
206 196 195 205 216 206 204 215 217 218 211 216 220 228 250 258 242 261 282 281 272 259 258 261 261 259 255 249 247 253 261 266 270 272 275 278 278 279 275 272 270 270 271
208 205 184 195 208 211 212 217 214 222 229 233 237 224 218 227 231 242 266 278 278 270 263 255 258 258 256 250 257 267 267 268 268 270 273 276 278 279 276 273 271 271 271
263 267 216 208 212 221 230 222 215 221 225 228 233 237 235 238 233 240 260 277 281 281 275 259 253 258 264 252 260 271 268 269 268 268 270 272 274 275 274 274 271 271 271
232 234 241 234 238 245 252 238 235 234 232 234 246 246 244 245 242 241 248 269 285 285 274 265 261 250 262 265 267 272 266 268 269 267 267 268 269 270 272 274 273 271 270
209 226 243 239 245 241 233 233 238 244 241 234 240 246 249 249 247 247 246 238 253 278 280 274 271 268 270 266 269 269 263 269 271 270 268 267 267 269 270 272 273 271 270
174 212 243 244 251 247 234 229 242 245 245 248 246 245 250 253 252 246 243 247 243 255 273 277 277 282 282 285 283 276 268 274 271 270 268 269 269 270 271 271 270 269 268
205 218 235 255 266 262 261 251 248 248 249 252 254 252 252 251 255 257 251 249 252 253 269 280 278 282 280 278 282 275 272 268 267 270 273 274 272 271 271 270 270 269 268
233 250 297 296 286 288 276 262 267 268 258 256 255 256 258 260 257 259 257 255 254 253 262 278 284 282 277 274 273 276 280 280 274 276 276 275 273 272 273 271 270 269 267
342 340 319 294 285 288 284 268 264 267 264 263 261 259 261 259 261 260 258 258 260 265 260 270 279 279 279 278 280 280 276 273 278 278 275 274 274 275 275 273 271 268 264
355 311 307 303 295 292 292 283 275 273 271 268 264 263 265 259 259 261 261 258 261 265 265 269 276 280 278 276 275 279 284 272 274 282 278 277 276 275 275 274 271 269 266
324 319 309 305 304 296 291 293 282 277 275 276 274 270 268 269 270 271 271 264 261 262 266 268 273 279 278 279 273 274 280 284 276 269 272 273 274 269 268 270 269 266 267
330 330 315 304 300 301 309 306 300 286 280 277 277 277 276 273 275 277 278 277 272 266 266 265 269 268 273 272 274 274 278 284 284 258 268 279 272 272 269 262 266 268 269
318 308 303 303 297 297 304 308 304 295 286 284 283 284 287 286 286 278 279 278 273 268 264 263 265 266 269 268 270 272 268 271 274 274 276 281 272 271 273 275 271 270 271
303 293 302 305 302 302 309 310 310 300 291 290 287 283 283 284 284 285 280 277 271 268 265 262 260 264 266 264 260 264 268 273 276 271 253 274 279 276 281 275 272 270 271
306 299 300 301 300 300 308 313 315 297 293 293 291 291 291 287 292 295 288 282 282 278 277 275 274 274 275 276 276 276 272 273 280 278 246 253 273 286 283 275 275 271 270
299 300 299 297 296 298 308 316 318 306 300 298 298 295 293 295 297 298 289 282 283 283 283 283 280 277 273 272 272 263 258 264 275 278 247 244 273 291 290 272 273 284 283